Cosmos 1980 - Orbit

View from above orbital plane
View from above orbital plane
View from above satellite
View from above satellite

Ground track
Ground track

The orbit data is extracted from the following two-line orbital elements,

1 19649U 88102A   13168.49692152  .00000283  00000-0  17250-3 0  5082
2 19649 071.0015 251.1814 0005669 351.1895 092.9210 14.14469897268018
Epoch (UTC): 17 June 2013 11:55:34
Eccentricity: 0.0005669
inclination: 71.0015°
perigee height: 840 km
apogee height: 848 km
right ascension of ascending node: 251.1814°
argument of perigee: 351.1895°
revolutions per day: 14.14469897
mean anomaly at epoch: 92.9210°
orbit number at epoch: 26801

The dashed part of the orbit path shows where the satellite is in the earth's shadow,  

Developed and maintained by Chris Peat, Heavens-Above GmbH. Please read the updated FAQ before sending e-mail. Imprint. DLR